Year,Month,Day,Hour,Minute,Value (Times are PST for windspeed in km/hr)
2006,12,15,00,00,2.40
2006,12,15,00,01,3.30
2006,12,15,00,02,1.40
2006,12,15,00,03,2.40
2006,12,15,00,04,0.50
2006,12,15,00,05,1.20
2006,12,15,00,06,0.90
2006,12,15,00,07,0.20
2006,12,15,00,08,0.00
2006,12,15,00,09,0.30
2006,12,15,00,10,1.40
2006,12,15,00,11,1.10
2006,12,15,00,12,2.00
2006,12,15,00,13,0.10
2006,12,15,00,14,1.70
2006,12,15,00,15,2.90
2006,12,15,00,16,17.10
2006,12,15,00,17,14.70
2006,12,15,00,18,5.10
2006,12,15,00,19,9.50
2006,12,15,00,20,15.60
2006,12,15,00,21,13.60
2006,12,15,00,22,12.40
2006,12,15,00,23,19.50
2006,12,15,00,24,16.90
2006,12,15,00,25,17.40
2006,12,15,00,26,21.00
2006,12,15,00,27,25.50
2006,12,15,00,28,15.70
2006,12,15,00,29,20.00
2006,12,15,00,30,12.70
2006,12,15,00,31,21.30
2006,12,15,00,32,19.90
2006,12,15,00,33,20.40
2006,12,15,00,34,22.30
2006,12,15,00,35,24.30
2006,12,15,00,36,30.50
2006,12,15,00,37,19.30
2006,12,15,00,38,18.00
2006,12,15,00,39,24.00
2006,12,15,00,40,20.40
2006,12,15,00,41,19.80
2006,12,15,00,42,15.70
2006,12,15,00,43,28.10
2006,12,15,00,44,21.10
2006,12,15,00,45,13.70
2006,12,15,00,46,25.20
2006,12,15,00,47,25.80
2006,12,15,00,48,31.10
2006,12,15,00,49,25.60
2006,12,15,00,50,26.20
2006,12,15,00,51,14.40
2006,12,15,00,52,14.50
2006,12,15,00,53,7.00
2006,12,15,00,54,15.20
2006,12,15,00,55,17.60
2006,12,15,00,56,22.50
2006,12,15,00,57,21.90
2006,12,15,00,58,25.00
2006,12,15,00,59,24.60
2006,12,15,01,00,27.90
2006,12,15,01,01,27.00
2006,12,15,01,02,26.20
2006,12,15,01,03,30.40
2006,12,15,01,04,32.70
2006,12,15,01,05,27.70
2006,12,15,01,06,34.70
2006,12,15,01,07,32.00
2006,12,15,01,08,34.50
2006,12,15,01,09,31.10
2006,12,15,01,10,30.70
2006,12,15,01,11,29.50
2006,12,15,01,12,33.30
2006,12,15,01,13,22.40
2006,12,15,01,14,32.70
2006,12,15,01,15,18.30
2006,12,15,01,16,34.60
2006,12,15,01,17,29.80
2006,12,15,01,18,25.90
2006,12,15,01,19,23.00
2006,12,15,01,20,30.10
2006,12,15,01,21,30.70
2006,12,15,01,22,24.50
2006,12,15,01,23,12.30
2006,12,15,01,24,34.10
2006,12,15,01,25,32.70
2006,12,15,01,26,32.70
2006,12,15,01,27,33.70
2006,12,15,01,28,31.30
2006,12,15,01,29,21.30
2006,12,15,01,30,17.70
2006,12,15,01,31,24.50
2006,12,15,01,32,34.80
2006,12,15,01,33,27.00
2006,12,15,01,34,37.30
2006,12,15,01,35,31.80
2006,12,15,01,36,41.00
2006,12,15,01,37,35.30
2006,12,15,01,38,41.40
2006,12,15,01,39,32.70
2006,12,15,01,40,23.20
2006,12,15,01,41,30.40
2006,12,15,01,42,28.50
2006,12,15,01,43,37.70
2006,12,15,01,44,30.50
2006,12,15,01,45,36.50
2006,12,15,01,46,18.60
2006,12,15,01,47,17.40
2006,12,15,01,48,30.20
2006,12,15,01,49,25.80
2006,12,15,01,50,20.00
2006,12,15,01,51,24.60
2006,12,15,01,52,25.40
2006,12,15,01,53,27.30
2006,12,15,01,54,21.20
2006,12,15,01,55,23.00
2006,12,15,01,56,21.80
2006,12,15,01,57,25.80
2006,12,15,01,58,23.90
2006,12,15,01,59,30.10
2006,12,15,02,00,20.70
2006,12,15,02,01,23.50
2006,12,15,02,02,24.40
2006,12,15,02,03,27.40
2006,12,15,02,04,38.90
2006,12,15,02,05,36.50
2006,12,15,02,06,33.70
2006,12,15,02,07,26.30
2006,12,15,02,08,29.50
2006,12,15,02,09,30.40
2006,12,15,02,10,24.10
2006,12,15,02,11,28.40
2006,12,15,02,12,36.60
2006,12,15,02,13,27.40
2006,12,15,02,14,28.70
2006,12,15,02,15,24.20
2006,12,15,02,16,35.40
2006,12,15,02,17,29.30
2006,12,15,02,18,26.50
2006,12,15,02,19,32.60
2006,12,15,02,20,21.70
2006,12,15,02,21,19.70
2006,12,15,02,22,24.50
2006,12,15,02,23,26.10
2006,12,15,02,24,21.50
2006,12,15,02,25,20.00
2006,12,15,02,26,26.30
2006,12,15,02,27,30.80
2006,12,15,02,28,29.00
2006,12,15,02,29,27.00
2006,12,15,02,30,23.30
2006,12,15,02,31,14.40
2006,12,15,02,32,22.30
2006,12,15,02,33,35.30
2006,12,15,02,34,20.00
2006,12,15,02,35,15.40
2006,12,15,02,36,24.10
2006,12,15,02,37,17.10
2006,12,15,02,38,27.30
2006,12,15,02,39,16.40
2006,12,15,02,40,15.20
2006,12,15,02,41,23.30
2006,12,15,02,42,28.50
2006,12,15,02,43,32.90
2006,12,15,02,44,24.60
2006,12,15,02,45,20.80
2006,12,15,02,46,25.50
2006,12,15,02,47,23.30
2006,12,15,02,48,19.70
2006,12,15,02,49,16.50
2006,12,15,02,50,17.10
2006,12,15,02,51,23.00
2006,12,15,02,52,14.60
2006,12,15,02,53,11.80
2006,12,15,02,54,20.70
2006,12,15,02,55,14.80
2006,12,15,02,56,16.30
2006,12,15,02,57,15.90
2006,12,15,02,58,16.30
2006,12,15,02,59,20.00
2006,12,15,03,00,25.50
2006,12,15,03,01,17.60
2006,12,15,03,02,18.50
2006,12,15,03,03,19.90
2006,12,15,03,04,20.40
2006,12,15,03,05,19.60
2006,12,15,03,06,13.00
2006,12,15,03,07,28.30
2006,12,15,03,08,7.60
2006,12,15,03,09,16.60
2006,12,15,03,10,28.60
2006,12,15,03,11,20.70
2006,12,15,03,12,22.50
2006,12,15,03,13,32.60
2006,12,15,03,14,37.60
2006,12,15,03,15,17.90
2006,12,15,03,16,20.30
2006,12,15,03,17,20.60
2006,12,15,03,18,30.00
2006,12,15,03,19,22.60
2006,12,15,03,20,22.90
2006,12,15,03,21,8.90
2006,12,15,03,22,31.80
2006,12,15,03,23,25.20
2006,12,15,03,24,25.60
2006,12,15,03,25,23.10
2006,12,15,03,26,19.00
2006,12,15,03,27,22.00
2006,12,15,03,28,16.30
2006,12,15,03,29,9.70
2006,12,15,03,30,10.90
2006,12,15,03,31,9.20
2006,12,15,03,32,17.60
2006,12,15,03,33,11.40
2006,12,15,03,34,21.90
2006,12,15,03,35,13.80
2006,12,15,03,36,20.20
2006,12,15,03,37,20.70
2006,12,15,03,38,18.90
2006,12,15,03,39,12.30
2006,12,15,03,40,5.60
2006,12,15,03,41,31.80
2006,12,15,03,42,24.10
2006,12,15,03,43,34.50
2006,12,15,03,44,27.80
2006,12,15,03,45,8.70
2006,12,15,03,46,19.40
2006,12,15,03,47,17.20
2006,12,15,03,48,12.80
2006,12,15,03,49,9.60
2006,12,15,03,50,17.50
2006,12,15,03,51,25.70
2006,12,15,03,52,17.50
2006,12,15,03,53,13.00
2006,12,15,03,54,11.30
2006,12,15,03,55,12.60
2006,12,15,03,56,8.10
2006,12,15,03,57,14.50
2006,12,15,03,58,14.60
2006,12,15,03,59,21.10
2006,12,15,04,00,18.10
2006,12,15,04,01,17.20
2006,12,15,04,02,15.40
2006,12,15,04,03,11.70
2006,12,15,04,04,24.10
2006,12,15,04,05,13.50
2006,12,15,04,06,6.40
2006,12,15,04,07,19.10
2006,12,15,04,08,23.90
2006,12,15,04,09,25.80
2006,12,15,04,10,22.80
2006,12,15,04,11,21.10
2006,12,15,04,12,29.40
2006,12,15,04,13,24.40
2006,12,15,04,14,15.70
2006,12,15,04,15,21.70
2006,12,15,04,16,20.20
2006,12,15,04,17,17.10
2006,12,15,04,18,19.00
2006,12,15,04,19,24.70
2006,12,15,04,20,13.30
2006,12,15,04,21,11.40
2006,12,15,04,22,20.80
2006,12,15,04,23,8.10
2006,12,15,04,24,11.30
2006,12,15,04,25,16.00
2006,12,15,04,26,13.00
2006,12,15,04,27,11.40
2006,12,15,04,28,7.10
2006,12,15,04,29,11.70
2006,12,15,04,30,7.80
2006,12,15,04,31,14.40
2006,12,15,04,32,18.90
2006,12,15,04,33,21.00
2006,12,15,04,34,17.00
2006,12,15,04,35,10.20
2006,12,15,04,36,10.30
2006,12,15,04,37,17.80
2006,12,15,04,38,22.10
2006,12,15,04,39,14.00
2006,12,15,04,40,17.00
2006,12,15,04,41,18.60
2006,12,15,04,42,15.10
2006,12,15,04,43,18.40
2006,12,15,04,44,15.80
2006,12,15,04,45,9.00
2006,12,15,04,46,5.80
2006,12,15,04,47,15.80
2006,12,15,04,48,18.30
2006,12,15,04,49,11.80
2006,12,15,04,50,9.70
2006,12,15,04,51,10.70
2006,12,15,04,52,9.40
2006,12,15,04,53,11.60
2006,12,15,04,54,12.60
2006,12,15,04,55,15.80
2006,12,15,04,56,13.90
2006,12,15,04,57,15.60
2006,12,15,04,58,25.30
2006,12,15,04,59,26.40
2006,12,15,05,00,14.90
2006,12,15,05,01,10.50
2006,12,15,05,02,20.00
2006,12,15,05,03,12.50
2006,12,15,05,04,7.00
2006,12,15,05,05,8.00
2006,12,15,05,06,4.10
2006,12,15,05,07,11.50
2006,12,15,05,08,16.70
2006,12,15,05,09,9.20
2006,12,15,05,10,26.60
2006,12,15,05,11,14.50
2006,12,15,05,12,8.60
2006,12,15,05,13,6.70
2006,12,15,05,14,10.10
2006,12,15,05,15,7.60
2006,12,15,05,16,11.50
2006,12,15,05,17,3.80
2006,12,15,05,18,4.40
2006,12,15,05,19,16.90
2006,12,15,05,20,8.70
2006,12,15,05,21,10.90
2006,12,15,05,22,8.40
2006,12,15,05,23,7.20
2006,12,15,05,24,12.40
2006,12,15,05,25,17.90
2006,12,15,05,26,12.10
2006,12,15,05,27,5.90
2006,12,15,05,28,7.00
2006,12,15,05,29,11.40
2006,12,15,05,30,11.50
2006,12,15,05,31,9.90
2006,12,15,05,32,18.60
2006,12,15,05,33,17.30
2006,12,15,05,34,8.00
2006,12,15,05,35,4.80
2006,12,15,05,36,4.60
2006,12,15,05,37,7.60
2006,12,15,05,38,12.50
2006,12,15,05,39,20.60
2006,12,15,05,40,11.20
2006,12,15,05,41,11.50
2006,12,15,05,42,15.60
2006,12,15,05,43,13.80
2006,12,15,05,44,17.70
2006,12,15,05,45,19.80
2006,12,15,05,46,14.90
2006,12,15,05,47,16.30
2006,12,15,05,48,17.30
2006,12,15,05,49,10.80
2006,12,15,05,50,13.40
2006,12,15,05,51,13.00
2006,12,15,05,52,20.10
2006,12,15,05,53,15.60
2006,12,15,05,54,17.80
2006,12,15,05,55,15.40
2006,12,15,05,56,14.30
2006,12,15,05,57,14.20
2006,12,15,05,58,13.10
2006,12,15,05,59,10.00
2006,12,15,06,00,3.10
2006,12,15,06,01,2.90
2006,12,15,06,02,11.30
2006,12,15,06,03,8.60
2006,12,15,06,04,11.60
2006,12,15,06,05,11.40
2006,12,15,06,06,9.60
2006,12,15,06,07,7.10
2006,12,15,06,08,11.30
2006,12,15,06,09,10.90
2006,12,15,06,10,11.30
2006,12,15,06,11,12.70
2006,12,15,06,12,18.10
2006,12,15,06,13,17.10
2006,12,15,06,14,14.60
2006,12,15,06,15,12.00
2006,12,15,06,16,16.40
2006,12,15,06,17,13.00
2006,12,15,06,18,6.00
2006,12,15,06,19,16.30
2006,12,15,06,20,23.10
2006,12,15,06,21,16.10
2006,12,15,06,22,9.30
2006,12,15,06,23,9.60
2006,12,15,06,24,21.30
2006,12,15,06,25,18.60
2006,12,15,06,26,14.50
2006,12,15,06,27,20.50
2006,12,15,06,28,25.20
2006,12,15,06,29,19.70
2006,12,15,06,30,10.10
2006,12,15,06,31,13.60
2006,12,15,06,32,13.60
2006,12,15,06,33,11.00
2006,12,15,06,34,17.30
2006,12,15,06,35,10.30
2006,12,15,06,36,11.30
2006,12,15,06,37,11.00
2006,12,15,06,38,22.20
2006,12,15,06,39,13.20
2006,12,15,06,40,16.10
2006,12,15,06,41,23.00
2006,12,15,06,42,20.40
2006,12,15,06,43,11.80
2006,12,15,06,44,7.70
2006,12,15,06,45,16.30
2006,12,15,06,46,18.40
2006,12,15,06,47,18.40
2006,12,15,06,48,11.30
2006,12,15,06,49,7.90
2006,12,15,06,50,12.00
2006,12,15,06,51,17.90
2006,12,15,06,52,18.40
2006,12,15,06,53,16.50
2006,12,15,06,54,14.20
2006,12,15,06,55,12.80
2006,12,15,06,56,7.10
2006,12,15,06,57,9.50
2006,12,15,06,58,8.50
2006,12,15,06,59,11.90
2006,12,15,07,00,11.10
2006,12,15,07,01,12.00
2006,12,15,07,02,14.20
2006,12,15,07,03,14.10
2006,12,15,07,04,14.90
2006,12,15,07,05,16.30
2006,12,15,07,06,17.50
2006,12,15,07,07,13.40
2006,12,15,07,08,18.90
2006,12,15,07,09,15.50
2006,12,15,07,10,17.10
2006,12,15,07,11,18.00
2006,12,15,07,12,20.30
2006,12,15,07,13,12.30
2006,12,15,07,14,15.40
2006,12,15,07,15,18.30
2006,12,15,07,16,14.80
2006,12,15,07,17,9.20
2006,12,15,07,18,11.20
2006,12,15,07,19,12.50
2006,12,15,07,20,12.80
2006,12,15,07,21,12.00
2006,12,15,07,22,10.30
2006,12,15,07,23,25.60
2006,12,15,07,24,16.20
2006,12,15,07,25,20.20
2006,12,15,07,26,6.70
2006,12,15,07,27,4.70
2006,12,15,07,28,7.50
2006,12,15,07,29,14.60
2006,12,15,07,30,7.40
2006,12,15,07,31,8.80
2006,12,15,07,32,13.70
2006,12,15,07,33,12.90
2006,12,15,07,34,11.90
2006,12,15,07,35,7.60
2006,12,15,07,36,13.20
2006,12,15,07,37,8.90
2006,12,15,07,38,5.60
2006,12,15,07,39,7.40
2006,12,15,07,40,11.80
2006,12,15,07,41,7.50
2006,12,15,07,42,13.70
2006,12,15,07,43,10.50
2006,12,15,07,44,10.80
2006,12,15,07,45,8.60
2006,12,15,07,46,13.50
2006,12,15,07,47,12.10
2006,12,15,07,48,9.30
2006,12,15,07,49,12.50
2006,12,15,07,50,15.90
2006,12,15,07,51,20.10
2006,12,15,07,52,11.90
2006,12,15,07,53,11.30
2006,12,15,07,54,6.70
2006,12,15,07,55,8.10
2006,12,15,07,56,18.50
2006,12,15,07,57,15.00
2006,12,15,07,58,13.00
2006,12,15,07,59,5.30
2006,12,15,08,00,8.30
2006,12,15,08,01,11.30
2006,12,15,08,02,10.10
2006,12,15,08,03,11.50
2006,12,15,08,04,9.50
2006,12,15,08,05,6.80
2006,12,15,08,06,3.60
2006,12,15,08,07,9.10
2006,12,15,08,08,12.50
2006,12,15,08,09,9.50
2006,12,15,08,10,19.10
2006,12,15,08,11,12.50
2006,12,15,08,12,21.20
2006,12,15,08,13,20.60
2006,12,15,08,14,16.30
2006,12,15,08,15,23.10
2006,12,15,08,16,8.70
2006,12,15,08,17,14.70
2006,12,15,08,18,17.60
2006,12,15,08,19,22.30
2006,12,15,08,20,13.10
2006,12,15,08,21,11.70
2006,12,15,08,22,14.90
2006,12,15,08,23,9.70
2006,12,15,08,24,12.70
2006,12,15,08,25,16.90
2006,12,15,08,26,13.80
2006,12,15,08,27,10.80
2006,12,15,08,28,7.20
2006,12,15,08,29,12.30
2006,12,15,08,30,9.70
2006,12,15,08,31,5.30
2006,12,15,08,32,4.10
2006,12,15,08,33,6.70
2006,12,15,08,34,8.40
2006,12,15,08,35,9.80
2006,12,15,08,36,10.10
2006,12,15,08,37,9.90
2006,12,15,08,38,20.00
2006,12,15,08,39,11.70
2006,12,15,08,40,9.20
2006,12,15,08,41,9.20
2006,12,15,08,42,13.10
2006,12,15,08,43,8.40
2006,12,15,08,44,13.80
2006,12,15,08,45,15.50
2006,12,15,08,46,10.60
2006,12,15,08,47,8.90
2006,12,15,08,48,13.00
2006,12,15,08,49,11.20
2006,12,15,08,50,14.80
2006,12,15,08,51,14.70
2006,12,15,08,52,15.50
2006,12,15,08,53,12.30
2006,12,15,08,54,8.50
2006,12,15,08,55,9.10
2006,12,15,08,56,10.70
2006,12,15,08,57,11.50
2006,12,15,08,58,15.20
2006,12,15,08,59,13.60
2006,12,15,09,00,14.10
2006,12,15,09,01,16.90
2006,12,15,09,02,14.00
2006,12,15,09,03,8.20
2006,12,15,09,04,5.00
2006,12,15,09,05,7.60
2006,12,15,09,06,13.20
2006,12,15,09,07,15.70
2006,12,15,09,08,15.10
2006,12,15,09,09,17.30
2006,12,15,09,10,8.80
2006,12,15,09,11,5.80
2006,12,15,09,12,5.80
2006,12,15,09,13,7.20
2006,12,15,09,14,12.30
2006,12,15,09,15,11.30
2006,12,15,09,16,12.80
2006,12,15,09,17,3.40
2006,12,15,09,18,9.10
2006,12,15,09,19,11.30
2006,12,15,09,20,7.80
2006,12,15,09,21,3.10
2006,12,15,09,22,7.10
2006,12,15,09,23,6.40
2006,12,15,09,24,6.50
2006,12,15,09,25,7.80
2006,12,15,09,26,4.80
2006,12,15,09,27,11.00
2006,12,15,09,28,4.80
2006,12,15,09,29,3.60
2006,12,15,09,30,7.10
2006,12,15,09,31,14.10
2006,12,15,09,32,8.50
2006,12,15,09,33,8.90
2006,12,15,09,34,10.70
2006,12,15,09,35,11.10
2006,12,15,09,36,9.30
2006,12,15,09,37,3.40
2006,12,15,09,38,11.10
2006,12,15,09,39,7.60
2006,12,15,09,40,5.10
2006,12,15,09,41,9.90
2006,12,15,09,42,9.20
2006,12,15,09,43,3.80
2006,12,15,09,44,6.70
2006,12,15,09,45,7.60
2006,12,15,09,46,4.10
2006,12,15,09,47,4.80
2006,12,15,09,48,9.80
2006,12,15,09,49,10.50
2006,12,15,09,50,5.50
2006,12,15,09,51,4.10
2006,12,15,09,52,8.40
2006,12,15,09,53,6.80
2006,12,15,09,54,21.40
2006,12,15,09,55,13.80
2006,12,15,09,56,10.00
2006,12,15,09,57,6.20
2006,12,15,09,58,13.20
2006,12,15,09,59,14.30
2006,12,15,10,00,9.10
2006,12,15,10,01,12.30
2006,12,15,10,02,9.30
2006,12,15,10,03,8.90
2006,12,15,10,04,13.00
2006,12,15,10,05,11.20
2006,12,15,10,06,9.70
2006,12,15,10,07,14.10
2006,12,15,10,08,5.80
2006,12,15,10,09,5.20
2006,12,15,10,10,14.10
2006,12,15,10,11,13.40
2006,12,15,10,12,15.50
2006,12,15,10,13,15.50
2006,12,15,10,14,7.60
2006,12,15,10,15,12.10
2006,12,15,10,16,8.50
2006,12,15,10,17,8.70
2006,12,15,10,18,6.40
2006,12,15,10,19,4.30
2006,12,15,10,20,2.60
2006,12,15,10,21,4.80
2006,12,15,10,22,5.10
2006,12,15,10,23,2.30
2006,12,15,10,24,9.70
2006,12,15,10,25,8.60
2006,12,15,10,26,9.60
2006,12,15,10,27,11.30
2006,12,15,10,28,9.30
2006,12,15,10,29,16.10
2006,12,15,10,30,6.60
2006,12,15,10,31,11.20
2006,12,15,10,32,12.60
2006,12,15,10,33,14.40
2006,12,15,10,34,10.90
2006,12,15,10,35,7.90
2006,12,15,10,36,16.90
2006,12,15,10,37,10.20
2006,12,15,10,38,13.00
2006,12,15,10,39,17.40
2006,12,15,10,40,11.10
2006,12,15,10,41,12.50
2006,12,15,10,42,14.20
2006,12,15,10,43,11.50
2006,12,15,10,44,4.80
2006,12,15,10,45,4.70
2006,12,15,10,46,8.00
2006,12,15,10,47,14.30
2006,12,15,10,48,14.30
2006,12,15,10,49,15.30
2006,12,15,10,50,6.80
2006,12,15,10,51,16.90
2006,12,15,10,52,13.10
2006,12,15,10,53,10.30
2006,12,15,10,54,11.80
2006,12,15,10,55,15.60
2006,12,15,10,56,16.20
2006,12,15,10,57,13.80
2006,12,15,10,58,13.00
2006,12,15,10,59,14.20
2006,12,15,11,00,8.60
2006,12,15,11,01,8.70
2006,12,15,11,02,11.70
2006,12,15,11,03,8.00
2006,12,15,11,04,8.90
2006,12,15,11,05,15.40
2006,12,15,11,06,9.70
2006,12,15,11,07,5.30
2006,12,15,11,08,4.30
2006,12,15,11,09,4.40
2006,12,15,11,10,5.50
2006,12,15,11,11,7.70
2006,12,15,11,12,6.90
2006,12,15,11,13,13.60
2006,12,15,11,14,7.60
2006,12,15,11,15,5.00
2006,12,15,11,16,7.50
2006,12,15,11,17,8.40
2006,12,15,11,18,9.00
2006,12,15,11,19,7.70
2006,12,15,11,20,8.30
2006,12,15,11,21,7.50
2006,12,15,11,22,11.40
2006,12,15,11,23,7.80
2006,12,15,11,24,5.80
2006,12,15,11,25,5.80
2006,12,15,11,26,7.00
2006,12,15,11,27,3.90
2006,12,15,11,28,11.90
2006,12,15,11,29,6.60
2006,12,15,11,30,6.70
2006,12,15,11,31,7.30
2006,12,15,11,32,3.50
2006,12,15,11,33,5.10
2006,12,15,11,34,10.80
2006,12,15,11,35,12.60
2006,12,15,11,36,10.00
2006,12,15,11,37,8.10
2006,12,15,11,38,14.60
2006,12,15,11,39,4.50
2006,12,15,11,40,11.30
2006,12,15,11,41,12.90
2006,12,15,11,42,7.90
2006,12,15,11,43,4.60
2006,12,15,11,44,7.20
2006,12,15,11,45,4.20
2006,12,15,11,46,11.80
2006,12,15,11,47,16.70
2006,12,15,11,48,12.20
2006,12,15,11,49,10.90
2006,12,15,11,50,8.50
2006,12,15,11,51,3.00
2006,12,15,11,52,8.40
2006,12,15,11,53,10.10
2006,12,15,11,54,3.60
2006,12,15,11,55,2.70
2006,12,15,11,56,19.90
2006,12,15,11,57,8.20
2006,12,15,11,58,6.90
2006,12,15,11,59,7.20
2006,12,15,12,00,11.80
2006,12,15,12,01,8.10
2006,12,15,12,02,6.80
2006,12,15,12,03,13.60
2006,12,15,12,04,8.10
2006,12,15,12,05,9.20
2006,12,15,12,06,7.40
2006,12,15,12,07,7.30
2006,12,15,12,08,9.40
2006,12,15,12,09,11.30
2006,12,15,12,10,6.90
2006,12,15,12,11,3.30
2006,12,15,12,12,7.40
2006,12,15,12,13,13.20
2006,12,15,12,14,10.60
2006,12,15,12,15,12.40
2006,12,15,12,16,12.50
2006,12,15,12,17,17.80
2006,12,15,12,18,16.10
2006,12,15,12,19,5.10
2006,12,15,12,20,9.70
2006,12,15,12,21,13.60
2006,12,15,12,22,7.20
2006,12,15,12,23,11.40
2006,12,15,12,24,7.20
2006,12,15,12,25,4.90
2006,12,15,12,26,10.80
2006,12,15,12,27,10.20
2006,12,15,12,28,8.90
2006,12,15,12,29,7.00
2006,12,15,12,30,8.50
2006,12,15,12,31,9.20
2006,12,15,12,32,5.50
2006,12,15,12,33,11.30
2006,12,15,12,34,12.50
2006,12,15,12,35,15.40
2006,12,15,12,36,7.20
2006,12,15,12,37,6.20
2006,12,15,12,38,7.30
2006,12,15,12,39,6.40
2006,12,15,12,40,7.10
2006,12,15,12,41,3.90
2006,12,15,12,42,3.10
2006,12,15,12,43,7.40
2006,12,15,12,44,17.80
2006,12,15,12,45,10.50
2006,12,15,12,46,9.80
2006,12,15,12,47,5.30
2006,12,15,12,48,10.50
2006,12,15,12,49,7.20
2006,12,15,12,50,11.30
2006,12,15,12,51,6.90
2006,12,15,12,52,9.30
2006,12,15,12,53,5.90
2006,12,15,12,54,7.20
2006,12,15,12,55,4.70
2006,12,15,12,56,5.50
2006,12,15,12,57,3.90
2006,12,15,12,58,4.70
2006,12,15,12,59,2.20
2006,12,15,13,00,1.50
2006,12,15,13,01,3.90
2006,12,15,13,02,1.90
2006,12,15,13,03,1.00
2006,12,15,13,04,5.30
2006,12,15,13,05,5.90
2006,12,15,13,06,4.20
2006,12,15,13,07,5.60
2006,12,15,13,08,13.20
2006,12,15,13,09,10.30
2006,12,15,13,10,8.40
2006,12,15,13,11,11.70
2006,12,15,13,12,11.40
2006,12,15,13,13,7.40
2006,12,15,13,14,10.30
2006,12,15,13,15,7.00
2006,12,15,13,16,5.60
2006,12,15,13,17,4.50
2006,12,15,13,18,4.10
2006,12,15,13,19,14.10
2006,12,15,13,20,17.60
2006,12,15,13,21,11.60
2006,12,15,13,22,5.60
2006,12,15,13,23,7.90
2006,12,15,13,24,6.60
2006,12,15,13,25,7.60
2006,12,15,13,26,7.60
2006,12,15,13,27,4.60
2006,12,15,13,28,3.30
2006,12,15,13,29,6.50
2006,12,15,13,30,21.00
2006,12,15,13,31,17.80
2006,12,15,13,32,17.70
2006,12,15,13,33,8.90
2006,12,15,13,34,6.30
2006,12,15,13,35,11.70
2006,12,15,13,36,13.00
2006,12,15,13,37,10.90
2006,12,15,13,38,13.90
2006,12,15,13,39,10.30
2006,12,15,13,40,8.50
2006,12,15,13,41,12.10
2006,12,15,13,42,8.60
2006,12,15,13,43,18.10
2006,12,15,13,44,8.10
2006,12,15,13,45,10.40
2006,12,15,13,46,12.70
2006,12,15,13,47,7.70
2006,12,15,13,48,7.40
2006,12,15,13,49,7.00
2006,12,15,13,50,9.10
2006,12,15,13,51,9.40
2006,12,15,13,52,14.90
2006,12,15,13,53,6.30
2006,12,15,13,54,5.70
2006,12,15,13,55,8.30
2006,12,15,13,56,15.90
2006,12,15,13,57,8.30
2006,12,15,13,58,13.70
2006,12,15,13,59,6.00
2006,12,15,14,00,11.20
2006,12,15,14,01,6.20
2006,12,15,14,02,6.90
2006,12,15,14,03,18.60
2006,12,15,14,04,11.10
2006,12,15,14,05,6.20
2006,12,15,14,06,3.10
2006,12,15,14,07,5.40
2006,12,15,14,08,6.80
2006,12,15,14,09,6.80
2006,12,15,14,10,5.10
2006,12,15,14,11,9.90
2006,12,15,14,12,5.00
2006,12,15,14,13,3.20
2006,12,15,14,14,3.20
2006,12,15,14,15,1.60
2006,12,15,14,16,6.40
2006,12,15,14,17,5.80
2006,12,15,14,18,11.80
2006,12,15,14,19,5.60
2006,12,15,14,20,2.30
2006,12,15,14,21,2.10
2006,12,15,14,22,4.80
2006,12,15,14,23,4.90
2006,12,15,14,24,0.80
2006,12,15,14,25,5.80
2006,12,15,14,26,2.30
2006,12,15,14,27,6.30
2006,12,15,14,28,14.50
2006,12,15,14,29,10.00
2006,12,15,14,30,15.80
2006,12,15,14,31,6.10
2006,12,15,14,32,6.40
2006,12,15,14,33,8.20
2006,12,15,14,34,15.80
2006,12,15,14,35,12.90
2006,12,15,14,36,7.50
2006,12,15,14,37,5.60
2006,12,15,14,38,3.50
2006,12,15,14,39,3.20
2006,12,15,14,40,2.90
2006,12,15,14,41,3.20
2006,12,15,14,42,1.00
2006,12,15,14,43,0.70
2006,12,15,14,44,0.10
2006,12,15,14,45,1.10
2006,12,15,14,46,3.00
2006,12,15,14,47,1.70
2006,12,15,14,48,2.70
2006,12,15,14,49,1.10
2006,12,15,14,50,3.50
2006,12,15,14,51,2.20
2006,12,15,14,52,0.50
2006,12,15,14,53,1.70
2006,12,15,14,54,0.60
2006,12,15,14,55,0.30
2006,12,15,14,56,0.60
2006,12,15,14,57,3.10
2006,12,15,14,58,1.40
2006,12,15,14,59,1.80
2006,12,15,15,00,3.80
2006,12,15,15,01,0.50
2006,12,15,15,02,1.50
2006,12,15,15,03,2.50
2006,12,15,15,04,1.00
2006,12,15,15,05,0.80
2006,12,15,15,06,2.40
2006,12,15,15,07,4.20
2006,12,15,15,08,4.60
2006,12,15,15,09,2.10
2006,12,15,15,10,1.30
2006,12,15,15,11,1.50
2006,12,15,15,12,1.50
2006,12,15,15,13,5.60
2006,12,15,15,14,4.30
2006,12,15,15,15,2.20
2006,12,15,15,16,1.40
2006,12,15,15,17,0.10
2006,12,15,15,18,0.00
2006,12,15,15,19,0.50
2006,12,15,15,20,0.20
2006,12,15,15,21,0.00
2006,12,15,15,22,0.30
2006,12,15,15,23,0.00
2006,12,15,15,24,0.00
2006,12,15,15,25,0.10
2006,12,15,15,26,0.00
2006,12,15,15,27,0.00
2006,12,15,15,28,0.00
2006,12,15,15,29,0.00
2006,12,15,15,30,0.00
2006,12,15,15,31,0.00
2006,12,15,15,32,0.00
2006,12,15,15,33,0.00
2006,12,15,15,34,0.00
2006,12,15,15,35,0.00
2006,12,15,15,36,0.00
2006,12,15,15,37,0.00
2006,12,15,15,38,0.00
2006,12,15,15,39,0.00
2006,12,15,15,40,0.00
2006,12,15,15,41,0.00
2006,12,15,15,42,0.00
2006,12,15,15,43,1.00
2006,12,15,15,44,1.90
2006,12,15,15,45,1.60
2006,12,15,15,46,0.70
2006,12,15,15,47,0.00
2006,12,15,15,48,0.00
2006,12,15,15,49,0.00
2006,12,15,15,50,0.00
2006,12,15,15,51,0.00
2006,12,15,15,52,0.00
2006,12,15,15,53,0.00
2006,12,15,15,54,0.00
2006,12,15,15,55,0.00
2006,12,15,15,56,0.00
2006,12,15,15,57,0.00
2006,12,15,15,58,0.60
2006,12,15,15,59,0.70
2006,12,15,16,00,0.30
2006,12,15,16,01,4.10
2006,12,15,16,02,1.60
2006,12,15,16,03,6.00
2006,12,15,16,04,4.90
2006,12,15,16,05,5.20
2006,12,15,16,06,3.50
2006,12,15,16,07,3.50
2006,12,15,16,08,1.40
2006,12,15,16,09,1.00
2006,12,15,16,10,3.30
2006,12,15,16,11,4.70
2006,12,15,16,12,2.00
2006,12,15,16,13,0.30
2006,12,15,16,14,1.40
2006,12,15,16,15,1.20
2006,12,15,16,16,0.10
2006,12,15,16,17,0.90
2006,12,15,16,18,3.00
2006,12,15,16,19,5.00
2006,12,15,16,20,1.00
2006,12,15,16,21,0.90
2006,12,15,16,22,2.60
2006,12,15,16,23,0.30
2006,12,15,16,24,0.80
2006,12,15,16,25,2.80
2006,12,15,16,26,2.70
2006,12,15,16,27,3.10
2006,12,15,16,28,1.90
2006,12,15,16,29,2.00
2006,12,15,16,30,1.70
2006,12,15,16,31,3.20
2006,12,15,16,32,3.50
2006,12,15,16,33,1.40
2006,12,15,16,34,1.80
2006,12,15,16,35,2.10
2006,12,15,16,36,3.70
2006,12,15,16,37,4.30
2006,12,15,16,38,2.70
2006,12,15,16,39,1.70
2006,12,15,16,40,2.30
2006,12,15,16,41,2.50
2006,12,15,16,42,0.20
2006,12,15,16,43,1.50
2006,12,15,16,44,1.60
2006,12,15,16,45,2.00
2006,12,15,16,46,2.00
2006,12,15,16,47,2.00
2006,12,15,16,48,0.50
2006,12,15,16,49,0.00
2006,12,15,16,50,0.70
2006,12,15,16,51,0.00
2006,12,15,16,52,0.00
2006,12,15,16,53,0.00
2006,12,15,16,54,0.00
2006,12,15,16,55,0.90
2006,12,15,16,56,0.60
2006,12,15,16,57,0.00
2006,12,15,16,58,0.00
2006,12,15,16,59,0.00
2006,12,15,17,00,0.00
2006,12,15,17,01,0.00
2006,12,15,17,02,0.00
2006,12,15,17,03,0.00
2006,12,15,17,04,0.00
2006,12,15,17,05,0.00
2006,12,15,17,06,0.00
2006,12,15,17,07,0.00
2006,12,15,17,08,0.00
2006,12,15,17,09,0.00
2006,12,15,17,10,0.00
2006,12,15,17,11,0.00
2006,12,15,17,12,0.20
2006,12,15,17,13,0.40
2006,12,15,17,14,0.00
2006,12,15,17,15,0.00
2006,12,15,17,16,1.50
2006,12,15,17,17,2.20
2006,12,15,17,18,0.90
2006,12,15,17,19,0.00
2006,12,15,17,20,0.10
2006,12,15,17,21,0.10
2006,12,15,17,22,1.10
2006,12,15,17,23,0.90
2006,12,15,17,24,0.60
2006,12,15,17,25,0.00
2006,12,15,17,26,0.60
2006,12,15,17,27,1.00
2006,12,15,17,28,0.80
2006,12,15,17,29,0.20
2006,12,15,17,30,0.10
2006,12,15,17,31,0.40
2006,12,15,17,32,1.00
2006,12,15,17,33,0.80
2006,12,15,17,34,0.20
2006,12,15,17,35,0.10
2006,12,15,17,36,0.00
2006,12,15,17,37,0.00
2006,12,15,17,38,0.00
2006,12,15,17,39,0.00
2006,12,15,17,40,0.00
2006,12,15,17,41,1.90